Weather History for KFDR - November, 2012

Change the Weather History Date:

Thursday, November 22, 2012

  Actual Average (KLTS) Record (KLTS)
Temperature  
Mean Temperature 70 °F -  
Max Temperature 80 °F 56 °F 81 °F (2012)
Min Temperature 59 °F 34 °F 21 °F (2007)
Cooling Degree Days 4    
Growing Degree Days 20 (Base 50)    
Moisture  
Dew Point 47 °F    
Average Humidity 51    
Maximum Humidity 69    
Minimum Humidity 34    
Precipitation  
Precipitation 0.00 in - - ()
Sea Level Pressure  
Sea Level Pressure 29.95 in    
Wind  
Wind Speed 15 mph (SSW)    
Max Wind Speed 32 mph    
Max Gust Speed 40 mph    
Visibility 10 miles    
Events      
Averages and records for this station are not official NWS values.
T = Trace of Precipitation, MM = Missing Value Source: NWS Daily Summary

Daily Weather History Graph

Daily Weather History Graph

Search for Another Location

Airport or City:

Trip Planner

Search our weather history database for the weather conditions in past years. The results will help you decide how hot, cold, wet, or windy it might be!

Date:

Astronomy

Nov. 22, 2012 Rise Set
Actual Time 7:16 AM CST 5:27 PM CST
Civil Twilight 6:49 AM CST 5:55 PM CST
Nautical Twilight 6:18 AM CST 6:25 PM CST
Astronomical Twilight 5:48 AM CST 6:55 PM CST
Moon 2:02 PM CST (11/22) 1:50 AM CST (11/22)
Length of Visible Light 11h 05m
Length of Day
10h 11m
Waxing Gibbous, 71% of the Moon is Illuminated
Nov 22
Waxing Gibbous
Nov 28
Full
Dec 6
Last Quarter
Dec 13
New
Dec 19
First Quarter

Hourly Weather History & Observations

Time (CST) Temp. Dew Point Humidity Pressure Visibility Wind Dir Wind Speed Gust Speed Precip Events Conditions
12:53 AM 60.1 °F 48.9 °F 67% 29.96 in 10.0 mi South 10.4 mph - N/A   Clear
1:53 AM 59.0 °F 48.0 °F 67% 29.96 in 10.0 mi South 10.4 mph - N/A   Clear
2:53 AM 61.0 °F 48.0 °F 62% 29.95 in 10.0 mi South 13.8 mph - N/A   Clear
3:53 AM 61.0 °F 48.9 °F 64% 29.94 in 10.0 mi South 13.8 mph - N/A   Clear
4:53 AM 60.1 °F 48.9 °F 67% 29.93 in 10.0 mi South 10.4 mph - N/A   Clear
5:53 AM 61.0 °F 48.9 °F 64% 29.93 in 10.0 mi South 10.4 mph - N/A   Clear
6:53 AM 60.1 °F 48.9 °F 67% 29.94 in 10.0 mi South 13.8 mph - N/A   Clear
7:53 AM 59.0 °F 48.9 °F 69% 29.95 in 10.0 mi South 10.4 mph - N/A   Partly Cloudy
8:53 AM 63.0 °F 50.0 °F 63% 29.96 in 10.0 mi South 16.1 mph - N/A   Clear
9:53 AM 68.0 °F 48.9 °F 50% 29.96 in 10.0 mi SSW 18.4 mph 27.6 mph N/A   Clear
10:53 AM 72.0 °F 48.9 °F 44% 29.94 in 10.0 mi SSW 24.2 mph - N/A   Clear
11:53 AM 75.0 °F 50.0 °F 41% 29.91 in 10.0 mi SSW 24.2 mph 32.2 mph N/A   Clear
12:53 PM 77.0 °F 50.0 °F 39% 29.88 in 10.0 mi SW 20.7 mph - N/A   Clear
1:53 PM 80.1 °F 50.0 °F 35% 29.86 in 10.0 mi SSW 18.4 mph - N/A   Clear
2:53 PM 80.1 °F 48.9 °F 34% 29.85 in 10.0 mi SW 17.3 mph 25.3 mph N/A   Clear
3:53 PM 80.1 °F 50.0 °F 35% 29.85 in 10.0 mi SSW 20.7 mph - N/A   Clear
4:53 PM 78.1 °F 51.1 °F 39% 29.88 in 10.0 mi South 10.4 mph - N/A   Clear
5:53 PM 71.1 °F 52.0 °F 51% 29.90 in 10.0 mi South 10.4 mph - N/A   Clear
6:53 PM 66.0 °F 51.1 °F 59% 29.93 in 10.0 mi SSE 8.1 mph - N/A   Clear
7:53 PM 64.9 °F 52.0 °F 63% 29.97 in 10.0 mi WSW 8.1 mph - N/A   Clear
8:53 PM 64.0 °F 37.9 °F 38% 30.00 in 10.0 mi North 16.1 mph - N/A   Clear
9:01 PM 64.4 °F 35.6 °F 34% 30.03 in 10.0 mi North 16.1 mph - N/A   Clear
9:53 PM 63.0 °F 37.9 °F 40% 30.04 in 10.0 mi North 25.3 mph 32.2 mph N/A   Clear
10:53 PM 63.0 °F 37.0 °F 38% 30.09 in 10.0 mi NNE 32.2 mph 40.3 mph N/A   Clear
11:53 PM 61.0 °F 36.0 °F 39% 30.12 in 10.0 mi NNE 32.2 mph 39.1 mph N/A   Clear